Regional Weather Roundup
Issued by NWS

Home | Current Version | Previous Version | Text Only | Print | Product List | Glossary On
Versions: 1 2 3 4 5 6 7 8 9 10 11 12 13 14 15 16 17 18 19 20 21 22 23 24 25 26 27 28 29 30 31 32 33 34 35 36 37 38 39 40 41 42 43 44 45 46 47 48 49 50
000
ASUS43 KIND 031100
RWRIN

WEATHER ROUNDUP FOR INDIANA
NATIONAL WEATHER SERVICE INDIANAPOLIS IN
700 AM EDT TUE AUG 03 2021

NOTE: "FAIR" INDICATES FEW OR NO CLOUDS BELOW 12,000 FEET WITH NO
SIGNIFICANT WEATHER AND/OR OBSTRUCTIONS TO VISIBILITY.

* - STATION DOES NOT REPORT WEATHER SUCH AS PRECIPITATION OR FOG.

+ - STATION NOT QUALITY CONTROLLED BY THE NATIONAL WEATHER SERVICE.
    USE DATA WITH CAUTION...ESPECIALLY DEWPOINT AND RELATIVE
    HUMIDITY OBSERVATIONS.

INZ001>003-010>013-019-020-031200-
NORTHWEST INDIANA

CITY           SKY/WX    TMP DP  RH WIND       PRES   REMARKS
GARY /AIRPORT/ MOCLDY    57  55  94 CALM      30.12S
MONTICELLO +   PTCLDY    52  51  95 CALM      30.12R
RENSSELAER +   CLOUDY    55  54  94 CALM      30.12S

$$

LMZ046-743>745-031200-
SOUTHERN LAKE MICHIGAN

STATION/POSITION TIME  TEMP    WIND        PRES    WAVE
                       AIR SEA DIR/SP/G            HT
                 (UTC) (F)     (DEG/KT/KT) (MB)    (FT)
BURNS HARBOR     1030   66     170/  2/  3 1020.0R
MICHIGAN CITY    1030   65     150/  7/  8 1019.3R
5NW MICH CITY    1040   68     140/  6/  8   N/A     1

$$

INZ004-005-014>016-021>024-031200-
NORTH CENTRAL INDIANA

CITY           SKY/WX    TMP DP  RH WIND       PRES   REMARKS
ELKHART        PTCLDY    57  55  94 CALM      30.12
GOSHEN         CLEAR     55  53  93 CALM      30.12R FOG
ROCHESTER +    CLEAR     54  52  94 CALM      30.13R
SOUTH BEND     CLOUDY    59  55  87 CALM      30.13R
WARSAW +       CLEAR     54  54 100 CALM      30.12S FOG

$$

INZ006>009-017-018-025>027-031200-
NORTHEAST INDIANA

CITY           SKY/WX    TMP DP  RH WIND       PRES   REMARKS
ANGOLA *+      CLEAR     55  55 100 CALM      30.12R FOG
AUBURN +       CLEAR     54  54 100 CALM      30.13R
FORT WAYNE     PTCLDY    54  52  93 CALM      30.13R
KENDALLVILLE + FAIR      53  53 100 CALM      30.13R

$$

INZ028-029-035-036-043>045-051>053-031200-
WEST CENTRAL INDIANA

CITY           SKY/WX    TMP DP  RH WIND       PRES   REMARKS
CRAWFORDSVL +  CLEAR     50  49  95 CALM      30.12R
LAFAYETTE      CLEAR     53  53 100 CALM      30.12R
TERRE HAUTE    CLEAR     57  56  96 N3        30.10R

$$

INZ030>032-037>040-046>048-054>057-064-065-031200-
CENTRAL INDIANA

CITY           SKY/WX    TMP DP  RH WIND       PRES   REMARKS
ANDERSON +     MOCLDY    55  50  85 CALM      30.12R
COLUMBUS       CLEAR     55  54  94 CALM      30.09
GREENWOOD *+   PTCLDY    56  54  95 CALM      30.10S
INDIANAPOLIS   CLOUDY    62  54  74 NE6       30.10R
-EAGLE CREEK   MOCLDY    61  55  81 CALM      30.10R
KOKOMO +       CLEAR     55  32  41 CALM      30.13R
MT COMFORT *+  MOCLDY    54  54 100 N3        30.11S
SHELBYVILLE    MOCLDY    58  54  86 NE3       30.09R

$$

INZ033-034-041-042-049-050-058-059-031200-
EAST CENTRAL INDIANA

CITY           SKY/WX    TMP DP  RH WIND       PRES   REMARKS
MUNCIE         CLEAR     55  50  83 CALM      30.12R
PORTLAND +     FAIR      54  52  94 CALM      30.12R
RICHMOND +     FAIR      52  52 100 NE6       30.11S

$$

INZ060-061-067>069-081>083-085>088-031200-
SOUTHWEST INDIANA

CITY           SKY/WX    TMP DP  RH WIND       PRES   REMARKS
EVANSVILLE     CLEAR     63  58  83 N6        30.07R
HUNTINGBURG +  MOCLDY    61  60  97 CALM      30.07R

$$

INZ062-063-066-070>080-084-089>092-031200-
SOUTH CENTRAL AND SOUTHEAST INDIANA

CITY           SKY/WX    TMP DP  RH WIND       PRES   REMARKS
BLOOMINGTON    MOCLDY    55  53  93 CALM      30.09R
MADISON *+     CLEAR     57  57 100 CALM      30.10R

$$




USA.gov is the U.S. government's official web portal to all federal, state and local government web resources and services.